QPF
0.03 0.03 0.04 0.06 0.08 0.11 0.13 0.17 0.19 0.24 0.23 0.16 0.17 0.18 0.17 0.17 0.15 0.11 0.08 0.07 0.05 0.06 0.09 0.07 0.05 0.03 0.02 0.02 0.02 0.02 0.01 0.01 0.01 0.01 0.01 0.01 0.01 0.01 0.00 0.00 0.00 0.01 0.01
0.02 0.02 0.01 0.02 0.04 0.06 0.09 0.14 0.17 0.20 0.21 0.19 0.23 0.33 0.35 0.30 0.26 0.24 0.20 0.16 0.11 0.09 0.09 0.09 0.08 0.05 0.03 0.03 0.02 0.03 0.03 0.03 0.03 0.03 0.02 0.01 0.01 0.01 0.01 0.01 0.01 0.01 0.01
0.01 0.01 0.01 0.01 0.01 0.02 0.03 0.06 0.11 0.16 0.20 0.23 0.31 0.48 0.61 0.59 0.52 0.43 0.36 0.30 0.23 0.18 0.16 0.15 0.12 0.10 0.07 0.06 0.05 0.05 0.07 0.07 0.07 0.07 0.05 0.02 0.01 0.00 0.01 0.01 0.02 0.02 0.01
0.03 0.02 0.02 0.01 0.01 0.00 0.01 0.02 0.04 0.08 0.13 0.20 0.32 0.53 0.70 0.73 0.66 0.62 0.58 0.53 0.41 0.32 0.26 0.20 0.15 0.12 0.10 0.10 0.10 0.09 0.10 0.09 0.09 0.09 0.07 0.06 0.06 0.03 0.01 0.01 0.02 0.03 0.03
0.08 0.05 0.04 0.02 0.01 0.01 0.00 0.01 0.02 0.04 0.09 0.14 0.22 0.37 0.53 0.64 0.76 0.79 0.72 0.62 0.54 0.45 0.34 0.25 0.19 0.15 0.13 0.14 0.14 0.14 0.14 0.13 0.14 0.13 0.12 0.11 0.08 0.05 0.04 0.02 0.02 0.03 0.03
0.08 0.06 0.04 0.03 0.02 0.01 0.01 0.01 0.00 0.01 0.04 0.07 0.14 0.26 0.35 0.47 0.63 0.72 0.75 0.77 0.73 0.58 0.41 0.30 0.21 0.19 0.19 0.17 0.15 0.16 0.15 0.15 0.16 0.16 0.15 0.14 0.11 0.07 0.05 0.03 0.03 0.02 0.01
0.07 0.05 0.04 0.03 0.04 0.03 0.02 0.01 0.01 0.01 0.02 0.04 0.07 0.14 0.22 0.31 0.40 0.47 0.53 0.56 0.55 0.49 0.44 0.38 0.29 0.22 0.19 0.17 0.16 0.16 0.14 0.15 0.16 0.16 0.14 0.12 0.09 0.08 0.05 0.03 0.02 0.02 0.01
0.06 0.05 0.04 0.04 0.04 0.02 0.02 0.01 0.01 0.01 0.02 0.02 0.03 0.05 0.10 0.16 0.23 0.27 0.33 0.40 0.43 0.41 0.36 0.29 0.24 0.19 0.16 0.15 0.16 0.17 0.15 0.14 0.13 0.11 0.11 0.09 0.07 0.07 0.06 0.04 0.03 0.02 0.01
0.07 0.07 0.07 0.06 0.06 0.04 0.03 0.03 0.02 0.02 0.02 0.01 0.02 0.03 0.04 0.07 0.11 0.17 0.23 0.28 0.34 0.35 0.30 0.23 0.18 0.15 0.14 0.14 0.14 0.14 0.11 0.10 0.09 0.09 0.08 0.07 0.06 0.05 0.05 0.04 0.04 0.02 0.01
0.12 0.13 0.13 0.11 0.08 0.09 0.08 0.05 0.03 0.02 0.01 0.01 0.02 0.02 0.03 0.04 0.05 0.08 0.11 0.13 0.17 0.20 0.20 0.17 0.15 0.14 0.14 0.14 0.15 0.13 0.10 0.09 0.08 0.07 0.06 0.05 0.04 0.04 0.03 0.03 0.03 0.02 0.01
0.21 0.20 0.22 0.18 0.13 0.14 0.11 0.08 0.04 0.03 0.02 0.02 0.02 0.03 0.03 0.04 0.05 0.06 0.08 0.09 0.10 0.12 0.14 0.17 0.20 0.20 0.17 0.16 0.15 0.12 0.10 0.08 0.06 0.05 0.03 0.03 0.02 0.02 0.02 0.02 0.01 0.01 0.01
0.24 0.23 0.27 0.22 0.18 0.17 0.14 0.11 0.08 0.05 0.03 0.03 0.03 0.03 0.04 0.06 0.07 0.09 0.11 0.12 0.12 0.12 0.16 0.17 0.21 0.20 0.16 0.16 0.14 0.12 0.10 0.07 0.05 0.04 0.03 0.03 0.02 0.02 0.01 0.01 0.01 0.01 0.01
0.22 0.24 0.20 0.21 0.21 0.19 0.16 0.14 0.11 0.10 0.06 0.05 0.06 0.05 0.04 0.05 0.06 0.07 0.11 0.16 0.17 0.21 0.26 0.26 0.27 0.24 0.22 0.19 0.17 0.14 0.12 0.09 0.05 0.04 0.03 0.03 0.02 0.02 0.01 0.01 0.01 0.01 0.01
0.13 0.16 0.18 0.18 0.17 0.16 0.16 0.15 0.13 0.14 0.13 0.11 0.10 0.10 0.09 0.09 0.11 0.13 0.14 0.17 0.20 0.23 0.25 0.25 0.23 0.24 0.23 0.22 0.22 0.18 0.13 0.09 0.08 0.06 0.04 0.03 0.02 0.02 0.02 0.01 0.01 0.01 0.01
0.09 0.11 0.14 0.14 0.12 0.11 0.11 0.10 0.10 0.12 0.12 0.11 0.09 0.08 0.08 0.10 0.12 0.13 0.13 0.14 0.16 0.17 0.19 0.20 0.21 0.21 0.23 0.25 0.22 0.16 0.12 0.08 0.07 0.06 0.05 0.05 0.04 0.03 0.02 0.02 0.01 0.01 0.01
0.03 0.03 0.04 0.05 0.05 0.05 0.05 0.04 0.03 0.03 0.04 0.04 0.04 0.04 0.05 0.05 0.04 0.05 0.05 0.05 0.07 0.10 0.13 0.12 0.12 0.13 0.15 0.15 0.12 0.09 0.08 0.07 0.07 0.06 0.05 0.06 0.06 0.04 0.03 0.02 0.01 0.01 0.01
0.01 0.01 0.00 0.00 0.00 0.00 0.00 0.00 0.00 0.00 0.00 0.00 0.01 0.01 0.02 0.02 0.02 0.02 0.02 0.02 0.03 0.05 0.05 0.05 0.05 0.05 0.07 0.07 0.05 0.03 0.03 0.04 0.05 0.06 0.05 0.06 0.07 0.06 0.05 0.04 0.03 0.02 0.01
0.00 0.00 0.00 0.00 0.00 0.00 0.00 0.00 0.00 0.00 0.00 0.00 0.00 0.00 0.00 0.00 0.01 0.00 0.00 0.00 0.01 0.01 0.01 0.02 0.03 0.03 0.03 0.03 0.02 0.02 0.01 0.01 0.02 0.04 0.05 0.07 0.08 0.07 0.08 0.08 0.07 0.07 0.04
0.00 0.00 0.00 0.00 0.00 0.00 0.00 0.00 0.00 0.00 0.00 0.00 0.00 0.00 0.00 0.00 0.00 0.00 0.00 0.00 0.00 0.00 0.00 0.00 0.01 0.02 0.01 0.01 0.01 0.01 0.01 0.01 0.01 0.03 0.04 0.05 0.05 0.08 0.10 0.07 0.06 0.07 0.05
0.00 0.00 0.00 0.00 0.00 0.00 0.00 0.00 0.00 0.00 0.00 0.00 0.00 0.00 0.00 0.00 0.00 0.00 0.00 0.00 0.00 0.00 0.00 0.00 0.00 0.00 0.00 0.00 0.00 0.00 0.00 0.00 0.01 0.03 0.04 0.04 0.05 0.08 0.08 0.04 0.05 0.06 0.05
0.00 0.00 0.00 0.00 0.00 0.00 0.00 0.00 0.00 0.00 0.00 0.00 0.00 0.00 0.00 0.00 0.00 0.00 0.00 0.00 0.00 0.00 0.00 0.00 0.00 0.00 0.00 0.00 0.00 0.00 0.00 0.01 0.01 0.01 0.02 0.04 0.04 0.04 0.04 0.03 0.04 0.06 0.07
0.00 0.00 0.00 0.00 0.00 0.00 0.00 0.00 0.00 0.00 0.00 0.00 0.00 0.00 0.00 0.00 0.00 0.00 0.00 0.00 0.00 0.00 0.00 0.00 0.00 0.00 0.00 0.00 0.00 0.00 0.00 0.00 0.01 0.01 0.02 0.02 0.03 0.03 0.03 0.03 0.03 0.05 0.05
0.00 0.00 0.00 0.00 0.00 0.00 0.00 0.00 0.00 0.00 0.00 0.00 0.00 0.00 0.00 0.00 0.00 0.00 0.00 0.00 0.00 0.00 0.00 0.00 0.00 0.00 0.00 0.00 0.00 0.01 0.00 0.00 0.00 0.01 0.01 0.03 0.04 0.03 0.03 0.03 0.04 0.04 0.04
0.00 0.00 0.00 0.00 0.00 0.00 0.00 0.00 0.00 0.00 0.00 0.00 0.00 0.00 0.00 0.00 0.00 0.00 0.00 0.00 0.00 0.00 0.00 0.00 0.00 0.00 0.00 0.00 0.00 0.01 0.00 0.00 0.01 0.01 0.02 0.03 0.04 0.05 0.04 0.03 0.04 0.04 0.03
0.00 0.00 0.00 0.00 0.00 0.00 0.00 0.00 0.00 0.00 0.00 0.00 0.00 0.00 0.00 0.00 0.00 0.00 0.00 0.00 0.00 0.00 0.00 0.00 0.00 0.00 0.00 0.00 0.00 0.00 0.00 0.00 0.01 0.02 0.03 0.03 0.03 0.04 0.03 0.03 0.02 0.02 0.02
0.00 0.00 0.00 0.00 0.00 0.00 0.00 0.00 0.00 0.00 0.00 0.00 0.00 0.00 0.00 0.00 0.00 0.00 0.00 0.00 0.00 0.00 0.00 0.00 0.00 0.00 0.00 0.00 0.00 0.00 0.00 0.01 0.02 0.02 0.01 0.02 0.03 0.03 0.02 0.02 0.01 0.01 0.01
MSLP
1016.94 1016.38 1015.89 1015.43 1015.00 1014.54 1014.06 1013.54 1013.00 1012.47 1011.98 1011.58 1011.29 1011.12 1011.06 1011.10 1011.22 1011.40 1011.61 1011.85 1012.11 1012.41 1012.74 1013.13 1013.56 1014.03 1014.51 1014.99 1015.44 1015.84 1016.18 1016.45 1016.67 1016.84 1016.97 1017.07 1017.14 1017.18 1017.18 1017.13 1017.04 1016.93 1016.81
1017.94 1017.35 1016.82 1016.33 1015.86 1015.35 1014.80 1014.21 1013.58 1012.96 1012.38 1011.88 1011.48 1011.20 1011.04 1010.99 1011.02 1011.12 1011.27 1011.47 1011.72 1012.03 1012.39 1012.80 1013.27 1013.77 1014.28 1014.77 1015.23 1015.64 1015.99 1016.29 1016.54 1016.76 1016.94 1017.11 1017.23 1017.31 1017.33 1017.29 1017.19 1017.04 1016.86
1018.74 1018.11 1017.56 1017.05 1016.54 1016.01 1015.42 1014.79 1014.12 1013.45 1012.81 1012.24 1011.76 1011.40 1011.15 1011.01 1010.97 1011.00 1011.10 1011.27 1011.51 1011.81 1012.18 1012.61 1013.08 1013.58 1014.08 1014.56 1015.00 1015.39 1015.74 1016.04 1016.32 1016.59 1016.84 1017.07 1017.27 1017.41 1017.48 1017.47 1017.37 1017.19 1016.98
1019.31 1018.66 1018.08 1017.55 1017.03 1016.48 1015.89 1015.24 1014.56 1013.87 1013.21 1012.60 1012.09 1011.68 1011.37 1011.17 1011.07 1011.05 1011.11 1011.25 1011.47 1011.76 1012.12 1012.54 1013.00 1013.48 1013.94 1014.38 1014.77 1015.13 1015.45 1015.75 1016.04 1016.34 1016.65 1016.95 1017.23 1017.45 1017.58 1017.61 1017.53 1017.35 1017.11
1019.71 1019.02 1018.42 1017.87 1017.34 1016.79 1016.20 1015.56 1014.89 1014.20 1013.55 1012.94 1012.42 1011.99 1011.66 1011.43 1011.30 1011.25 1011.28 1011.40 1011.60 1011.87 1012.21 1012.61 1013.03 1013.46 1013.86 1014.24 1014.58 1014.87 1015.15 1015.43 1015.72 1016.04 1016.39 1016.75 1017.09 1017.37 1017.57 1017.65 1017.60 1017.44 1017.19
1020.00 1019.27 1018.64 1018.07 1017.52 1016.97 1016.38 1015.75 1015.10 1014.45 1013.82 1013.25 1012.74 1012.33 1012.00 1011.77 1011.63 1011.57 1011.59 1011.69 1011.87 1012.12 1012.43 1012.78 1013.15 1013.52 1013.86 1014.16 1014.43 1014.66 1014.88 1015.12 1015.39 1015.70 1016.06 1016.45 1016.83 1017.17 1017.42 1017.54 1017.54 1017.40 1017.17
1020.21 1019.45 1018.79 1018.20 1017.63 1017.07 1016.48 1015.87 1015.25 1014.63 1014.04 1013.50 1013.04 1012.66 1012.37 1012.16 1012.03 1011.97 1011.99 1012.09 1012.25 1012.47 1012.74 1013.04 1013.35 1013.65 1013.92 1014.15 1014.33 1014.50 1014.65 1014.83 1015.06 1015.35 1015.69 1016.07 1016.46 1016.82 1017.10 1017.27 1017.31 1017.22 1017.03
1020.39 1019.61 1018.93 1018.31 1017.73 1017.15 1016.55 1015.95 1015.35 1014.76 1014.22 1013.73 1013.32 1012.99 1012.74 1012.57 1012.47 1012.43 1012.45 1012.54 1012.68 1012.87 1013.10 1013.34 1013.60 1013.83 1014.02 1014.18 1014.29 1014.38 1014.47 1014.59 1014.76 1014.99 1015.29 1015.63 1016.00 1016.36 1016.65 1016.85 1016.94 1016.91 1016.77
1020.53 1019.75 1019.06 1018.43 1017.83 1017.23 1016.63 1016.03 1015.44 1014.89 1014.39 1013.95 1013.60 1013.32 1013.12 1012.99 1012.92 1012.90 1012.93 1013.00 1013.12 1013.27 1013.46 1013.65 1013.85 1014.01 1014.15 1014.24 1014.29 1014.32 1014.34 1014.39 1014.49 1014.65 1014.88 1015.17 1015.50 1015.83 1016.12 1016.34 1016.47 1016.50 1016.44
1020.61 1019.86 1019.18 1018.55 1017.94 1017.34 1016.74 1016.14 1015.57 1015.04 1014.58 1014.18 1013.88 1013.65 1013.49 1013.40 1013.35 1013.34 1013.38 1013.44 1013.53 1013.65 1013.78 1013.93 1014.06 1014.18 1014.26 1014.30 1014.30 1014.28 1014.25 1014.24 1014.27 1014.36 1014.51 1014.74 1015.00 1015.29 1015.57 1015.80 1015.98 1016.07 1016.09
1020.63 1019.93 1019.28 1018.67 1018.08 1017.48 1016.89 1016.30 1015.75 1015.24 1014.81 1014.46 1014.18 1013.99 1013.86 1013.79 1013.76 1013.76 1013.78 1013.82 1013.88 1013.96 1014.05 1014.15 1014.24 1014.31 1014.35 1014.35 1014.32 1014.26 1014.19 1014.13 1014.10 1014.13 1014.22 1014.37 1014.58 1014.82 1015.08 1015.33 1015.54 1015.69 1015.79
1020.58 1019.94 1019.36 1018.79 1018.22 1017.65 1017.08 1016.52 1015.99 1015.52 1015.11 1014.79 1014.54 1014.36 1014.25 1014.18 1014.15 1014.13 1014.13 1014.15 1014.17 1014.21 1014.26 1014.32 1014.37 1014.40 1014.41 1014.39 1014.33 1014.25 1014.15 1014.06 1013.99 1013.97 1014.01 1014.10 1014.26 1014.47 1014.71 1014.96 1015.20 1015.41 1015.58
1020.49 1019.94 1019.42 1018.90 1018.38 1017.86 1017.32 1016.80 1016.31 1015.87 1015.50 1015.19 1014.96 1014.79 1014.67 1014.58 1014.53 1014.49 1014.46 1014.44 1014.43 1014.43 1014.45 1014.46 1014.48 1014.48 1014.47 1014.43 1014.36 1014.26 1014.15 1014.04 1013.95 1013.90 1013.90 1013.96 1014.08 1014.26 1014.48 1014.73 1014.98 1015.23 1015.45
1020.41 1019.93 1019.48 1019.03 1018.57 1018.10 1017.62 1017.15 1016.71 1016.31 1015.97 1015.68 1015.45 1015.27 1015.13 1015.02 1014.94 1014.86 1014.79 1014.74 1014.70 1014.66 1014.64 1014.63 1014.62 1014.60 1014.56 1014.50 1014.42 1014.31 1014.19 1014.07 1013.97 1013.90 1013.88 1013.92 1014.02 1014.17 1014.38 1014.62 1014.88 1015.14 1015.39
1020.37 1019.96 1019.57 1019.18 1018.78 1018.37 1017.96 1017.56 1017.17 1016.82 1016.51 1016.24 1016.02 1015.82 1015.66 1015.51 1015.39 1015.27 1015.17 1015.09 1015.01 1014.95 1014.91 1014.87 1014.83 1014.78 1014.72 1014.64 1014.54 1014.42 1014.29 1014.16 1014.05 1013.97 1013.94 1013.96 1014.04 1014.18 1014.38 1014.61 1014.86 1015.12 1015.36
1020.41 1020.05 1019.69 1019.35 1019.00 1018.66 1018.31 1017.98 1017.67 1017.38 1017.11 1016.86 1016.64 1016.43 1016.24 1016.07 1015.91 1015.76 1015.63 1015.52 1015.43 1015.35 1015.28 1015.22 1015.16 1015.08 1014.99 1014.88 1014.74 1014.59 1014.44 1014.29 1014.17 1014.08 1014.03 1014.05 1014.12 1014.25 1014.42 1014.63 1014.87 1015.10 1015.34
1020.51 1020.17 1019.84 1019.52 1019.22 1018.93 1018.66 1018.40 1018.16 1017.93 1017.71 1017.49 1017.28 1017.07 1016.87 1016.68 1016.49 1016.33 1016.18 1016.06 1015.95 1015.87 1015.79 1015.71 1015.62 1015.51 1015.37 1015.21 1015.03 1014.84 1014.65 1014.47 1014.32 1014.21 1014.15 1014.15 1014.21 1014.32 1014.48 1014.67 1014.87 1015.09 1015.29
1020.64 1020.29 1019.97 1019.67 1019.40 1019.16 1018.95 1018.77 1018.60 1018.43 1018.27 1018.10 1017.91 1017.72 1017.52 1017.32 1017.14 1016.97 1016.82 1016.70 1016.60 1016.51 1016.42 1016.32 1016.20 1016.05 1015.86 1015.65 1015.41 1015.16 1014.91 1014.69 1014.50 1014.36 1014.28 1014.26 1014.30 1014.40 1014.53 1014.69 1014.87 1015.06 1015.24
1020.75 1020.38 1020.05 1019.76 1019.51 1019.31 1019.16 1019.04 1018.94 1018.85 1018.75 1018.63 1018.49 1018.33 1018.15 1017.98 1017.81 1017.66 1017.53 1017.42 1017.32 1017.24 1017.14 1017.02 1016.87 1016.67 1016.43 1016.15 1015.85 1015.53 1015.22 1014.94 1014.71 1014.53 1014.42 1014.38 1014.40 1014.48 1014.59 1014.73 1014.89 1015.05 1015.21
1020.79 1020.41 1020.06 1019.77 1019.54 1019.38 1019.28 1019.22 1019.19 1019.16 1019.13 1019.07 1018.99 1018.88 1018.74 1018.61 1018.47 1018.35 1018.25 1018.16 1018.08 1018.00 1017.90 1017.76 1017.57 1017.33 1017.03 1016.69 1016.32 1015.94 1015.57 1015.24 1014.96 1014.74 1014.61 1014.54 1014.54 1014.60 1014.70 1014.82 1014.96 1015.11 1015.26
1020.77 1020.37 1020.02 1019.73 1019.51 1019.38 1019.31 1019.31 1019.34 1019.38 1019.41 1019.42 1019.40 1019.34 1019.27 1019.18 1019.09 1019.01 1018.94 1018.88 1018.82 1018.74 1018.63 1018.47 1018.25 1017.97 1017.62 1017.23 1016.80 1016.37 1015.95 1015.58 1015.26 1015.02 1014.86 1014.77 1014.76 1014.80 1014.89 1015.01 1015.14 1015.28 1015.43
1020.69 1020.29 1019.94 1019.66 1019.46 1019.35 1019.32 1019.35 1019.43 1019.52 1019.61 1019.68 1019.72 1019.73 1019.71 1019.68 1019.64 1019.60 1019.57 1019.53 1019.48 1019.40 1019.28 1019.10 1018.86 1018.54 1018.17 1017.74 1017.28 1016.82 1016.38 1015.98 1015.65 1015.40 1015.22 1015.13 1015.10 1015.14 1015.22 1015.33 1015.46 1015.60 1015.75
1020.61 1020.23 1019.89 1019.63 1019.44 1019.35 1019.34 1019.39 1019.50 1019.63 1019.76 1019.88 1019.97 1020.03 1020.07 1020.10 1020.10 1020.10 1020.10 1020.08 1020.03 1019.95 1019.82 1019.63 1019.37 1019.04 1018.65 1018.21 1017.75 1017.29 1016.86 1016.47 1016.15 1015.90 1015.73 1015.64 1015.61 1015.64 1015.71 1015.82 1015.94 1016.08 1016.23
1020.57 1020.23 1019.92 1019.67 1019.50 1019.42 1019.41 1019.47 1019.59 1019.73 1019.88 1020.03 1020.16 1020.27 1020.35 1020.42 1020.47 1020.50 1020.52 1020.51 1020.47 1020.38 1020.24 1020.04 1019.78 1019.45 1019.07 1018.65 1018.22 1017.80 1017.40 1017.06 1016.77 1016.55 1016.40 1016.31 1016.29 1016.31 1016.38 1016.47 1016.58 1016.71 1016.85
1020.62 1020.32 1020.05 1019.82 1019.66 1019.58 1019.56 1019.61 1019.71 1019.84 1019.99 1020.15 1020.30 1020.43 1020.55 1020.65 1020.73 1020.79 1020.82 1020.82 1020.77 1020.69 1020.55 1020.35 1020.09 1019.78 1019.44 1019.07 1018.70 1018.34 1018.02 1017.73 1017.50 1017.33 1017.21 1017.15 1017.13 1017.14 1017.19 1017.26 1017.35 1017.46 1017.57
1020.76 1020.51 1020.27 1020.06 1019.91 1019.81 1019.77 1019.79 1019.85 1019.96 1020.09 1020.23 1020.38 1020.53 1020.66 1020.78 1020.88 1020.95 1021.00 1021.00 1020.97 1020.88 1020.75 1020.56 1020.33 1020.07 1019.78 1019.49 1019.19 1018.92 1018.69 1018.49 1018.33 1018.21 1018.14 1018.09 1018.08 1018.08 1018.10 1018.14 1018.19 1018.26 1018.34
Thickness
5727 5735 5741 5746 5750 5754 5757 5761 5765 5769 5772 5774 5774 5774 5776 5777 5777 5777 5775 5773 5771 5769 5765 5761 5758 5755 5750 5748 5746 5743 5740 5737 5738 5734 5731 5733 5736 5737 5738 5739 5737 5735 5734
5713 5720 5726 5730 5734 5739 5743 5748 5753 5758 5763 5766 5769 5770 5771 5771 5771 5769 5768 5766 5765 5763 5761 5757 5753 5750 5746 5743 5741 5739 5734 5732 5732 5728 5721 5718 5721 5728 5734 5734 5733 5733 5731
5692 5700 5708 5713 5719 5724 5729 5735 5740 5747 5753 5759 5762 5764 5763 5762 5760 5758 5758 5757 5755 5754 5752 5750 5747 5745 5742 5738 5736 5734 5730 5725 5725 5726 5719 5711 5708 5715 5723 5727 5728 5729 5728
5677 5683 5690 5697 5704 5710 5717 5722 5728 5735 5742 5748 5753 5755 5755 5752 5753 5753 5750 5748 5746 5745 5744 5741 5739 5737 5735 5733 5731 5730 5727 5723 5718 5718 5719 5717 5715 5709 5709 5716 5720 5723 5724
5662 5669 5676 5683 5691 5698 5704 5711 5717 5723 5730 5737 5743 5747 5748 5749 5748 5745 5742 5739 5737 5736 5735 5733 5732 5730 5728 5726 5725 5723 5722 5719 5716 5713 5712 5710 5709 5709 5704 5703 5709 5713 5717
5650 5656 5665 5672 5679 5687 5693 5699 5705 5711 5718 5725 5731 5736 5739 5740 5738 5736 5733 5731 5730 5728 5726 5724 5723 5722 5721 5719 5718 5717 5716 5713 5712 5709 5708 5705 5703 5702 5701 5699 5700 5703 5708
5639 5645 5652 5660 5668 5676 5683 5688 5693 5699 5706 5712 5718 5723 5728 5730 5729 5728 5726 5724 5721 5719 5718 5716 5715 5714 5713 5712 5710 5709 5708 5707 5705 5704 5704 5703 5702 5702 5700 5698 5696 5696 5700
5631 5636 5643 5651 5658 5666 5672 5678 5683 5688 5693 5699 5705 5710 5715 5717 5718 5718 5716 5714 5712 5711 5710 5709 5707 5706 5705 5704 5703 5702 5700 5700 5700 5700 5699 5698 5699 5699 5698 5696 5692 5689 5691
5625 5631 5637 5644 5650 5656 5662 5669 5674 5678 5683 5689 5694 5698 5701 5704 5705 5705 5704 5703 5702 5701 5700 5700 5698 5697 5696 5695 5695 5694 5694 5693 5693 5694 5694 5693 5694 5694 5694 5694 5692 5687 5683
5620 5625 5631 5636 5641 5647 5653 5660 5665 5669 5674 5679 5684 5686 5689 5691 5692 5693 5692 5691 5691 5690 5689 5688 5687 5687 5687 5686 5686 5686 5686 5686 5686 5687 5687 5687 5688 5689 5689 5689 5689 5687 5683
5615 5620 5626 5631 5636 5641 5647 5652 5657 5662 5666 5671 5674 5677 5678 5680 5681 5682 5682 5681 5681 5680 5679 5679 5679 5679 5679 5679 5679 5679 5679 5678 5679 5680 5680 5680 5682 5682 5683 5683 5683 5682 5680
5614 5618 5623 5627 5632 5636 5641 5646 5651 5655 5659 5663 5666 5669 5670 5672 5673 5673 5674 5674 5673 5673 5673 5672 5672 5672 5672 5672 5671 5670 5672 5672 5672 5674 5674 5675 5676 5676 5676 5677 5677 5677 5676
5615 5617 5621 5625 5628 5632 5637 5641 5646 5650 5654 5658 5660 5662 5664 5665 5666 5667 5668 5668 5668 5668 5668 5667 5666 5665 5665 5665 5665 5665 5666 5666 5668 5669 5670 5671 5671 5670 5671 5672 5671 5672 5672
5618 5620 5622 5625 5628 5631 5635 5639 5644 5648 5651 5654 5656 5657 5658 5659 5661 5662 5662 5663 5663 5662 5662 5661 5660 5660 5659 5660 5660 5661 5661 5662 5663 5665 5666 5666 5666 5666 5666 5666 5666 5666 5665
5622 5624 5625 5627 5629 5632 5635 5638 5642 5645 5648 5650 5651 5652 5654 5655 5656 5656 5656 5656 5656 5656 5655 5655 5655 5655 5655 5655 5655 5656 5657 5656 5657 5659 5660 5661 5662 5662 5662 5662 5660 5659 5658
5627 5629 5631 5632 5633 5634 5636 5639 5641 5643 5645 5646 5647 5648 5650 5650 5650 5650 5650 5650 5649 5648 5648 5647 5647 5648 5649 5649 5650 5651 5651 5651 5651 5651 5653 5655 5655 5656 5656 5656 5656 5655 5653
5632 5633 5635 5636 5637 5638 5639 5640 5641 5643 5643 5644 5644 5645 5645 5645 5644 5645 5644 5643 5642 5641 5640 5639 5639 5639 5640 5642 5644 5644 5644 5644 5643 5644 5645 5647 5648 5648 5647 5648 5649 5649 5649
5636 5637 5639 5640 5641 5642 5642 5643 5643 5642 5642 5641 5641 5641 5641 5640 5640 5639 5638 5637 5636 5634 5633 5632 5631 5631 5632 5634 5635 5636 5636 5635 5635 5635 5636 5637 5638 5640 5640 5640 5640 5640 5641
5643 5643 5644 5645 5645 5645 5645 5644 5643 5642 5641 5640 5639 5638 5638 5637 5636 5635 5633 5632 5630 5628 5627 5625 5624 5623 5623 5625 5626 5627 5625 5625 5625 5626 5627 5628 5630 5633 5634 5634 5633 5634 5635
5649 5649 5650 5649 5648 5648 5648 5646 5644 5642 5641 5640 5639 5638 5637 5635 5633 5631 5630 5628 5626 5624 5622 5619 5617 5615 5614 5616 5618 5618 5616 5615 5615 5616 5618 5620 5622 5625 5627 5627 5628 5627 5628
5655 5655 5654 5652 5652 5652 5651 5648 5647 5645 5644 5643 5641 5638 5636 5634 5631 5629 5627 5625 5623 5620 5617 5614 5611 5610 5608 5609 5610 5610 5608 5607 5607 5608 5609 5612 5615 5618 5620 5622 5623 5623 5624
5658 5659 5657 5656 5657 5657 5655 5652 5650 5650 5648 5645 5641 5638 5636 5634 5631 5628 5624 5622 5619 5616 5612 5609 5607 5605 5604 5603 5603 5604 5604 5603 5602 5602 5603 5605 5608 5611 5613 5615 5618 5619 5619
5661 5661 5660 5660 5661 5661 5659 5657 5656 5654 5651 5646 5642 5639 5636 5632 5629 5626 5622 5619 5616 5613 5609 5606 5602 5600 5599 5599 5600 5600 5600 5600 5599 5598 5600 5601 5603 5605 5606 5608 5611 5612 5612
5664 5664 5664 5663 5663 5664 5663 5662 5661 5659 5654 5648 5644 5640 5636 5632 5628 5625 5621 5618 5614 5610 5607 5604 5600 5598 5597 5597 5597 5596 5596 5597 5596 5595 5596 5596 5597 5598 5600 5602 5603 5604 5605
5666 5667 5665 5665 5665 5666 5666 5665 5664 5661 5655 5650 5646 5641 5637 5633 5628 5624 5620 5617 5613 5610 5606 5602 5599 5597 5596 5595 5596 5595 5595 5594 5594 5593 5593 5592 5592 5592 5593 5594 5596 5597 5599
5669 5669 5668 5668 5668 5668 5668 5667 5666 5663 5658 5652 5647 5643 5639 5634 5629 5625 5621 5618 5615 5612 5609 5606 5602 5599 5598 5597 5596 5596 5595 5594 5594 5593 5590 5588 5587 5587 5587 5588 5590 5591 5592